{"data":{"norad_id":63095,"epoch":"2026-05-25T03:36:56.437344Z","epoch_age_seconds":55299,"freshness":"FRESH","line1":"1 63095U 25037U   26145.15065321  .00006869  00000+0  58265-3 0  9998","line2":"2 63095  70.0012 161.7271 0004016 263.8189  96.2512 14.98346435 70007","mean_motion":14.98346435,"eccentricity":0.0004016,"inclination_deg":70.0012,"raan_deg":161.7271,"arg_perigee_deg":263.8189,"mean_anomaly_deg":96.2512,"bstar":0.00058265,"rev_number":7000,"period_min":96.105944951242,"perigee_km":569.21389047289,"apogee_km":574.79624458153,"semimajor_km":6950.1420675272,"source":"CELESTRAK","updated_at":"2026-05-25T13:38:19.880918Z"}}